DMSP 5D-2 F13 DEB, 40605

Orbit data source: Space-Track

DMSP 5D-2 F13 DEB, 40605 is space debris in SSO originally from a launch on Fri, 24 Mar 1995 UTC launched from the Air Force Western Test Range (AFWTR). Debris objects in space refer to the collection of defunct objects orbiting the Earth. Examples of debris include non-operational satellites, rocket bodies, and fragments generated from explosions, collisions, or faulty payload assembly.

Loading next visibility...
Identifier
40605, 1995-015FC
Orbit
SSO
Country
Flag of USUS
Related business
Manufacturer
Unknown
Mission
Spacecraft
Bus & Motor
Unknown
Mass
Unknown
Launch date (UTC)
1995-03-24 (31 years ago)
Launch vehicle
Unknown
Launch site
Air Force Western Test Range (AFWTR)
Object type
Payload
Rocket body
Debris
Shape & HBR
Unknown shape, 0.1 m
Radar Cross Section
Small (<0.1 m²)

Expand to show TLE details & history
Last TLE update: 3 days ago

TLE from 3 days ago
0 DMSP 5D-2 F13 DEB
1 40605U 95015FC  26034.42460446  .00012864  00000-0  27597-2 0  9993
2 40605  98.6303  97.3612 0019330 274.6248  85.2742 14.58655229563035
Epoch: 2026-02-03T10:11Z
TLE epoch observation values (Epoch: 2026-02-03T10:11:25.825Z)
Latitude
-0.00003°
Longitude
170.89787°
Altitude
699.388 km
Speed
7.507 km/s
True Right ascension
06h 29m 26s
True Declination
0° 00' 00"
Sunlit
Object was in full shadow at epoch
Visualization orbit readout
Latitude
Unknown
Longitude
Unknown
Altitude
Unknown
Speed
Unknown
Apparent Right ascension
Unknown
Apparent Declination
Unknown
Sunlit
N/A
Visualization observer readout
Local Sidereal Time
20:40:16
Azimuth
Unknown
Elevation
Unknown
Doppler factor
Unknown
Orbital elements
Apogee altitude
708.294 km
Perigee altitude
680.951 km
Semi-major axis
7,072.76 km
Eccentricity
0.00193
Inclination
98.6303°
RAAN
97.3612°
Arg. of periapsis
274.6248°
True anomaly
85.495°
Mean anomaly
85.2742°
Eccentric anomaly
85.38459°
Mean motion
3.64888 °/min
Orbital period
98.66 mins
BSTAR
0.0027597
Loading maneuver chart data...
Computing Atmospheric mass density...

Documentation

Showing up to 5 results
|